FW7170 Charleston SC US current weather conditions

sailwx.info

Wind from 146

Air temperature 26.1° C
Dewpoint 23.8° C

Last reported at 2020-Jul-04 12:09 UTC.
Time now 2020-Jul-04 12:57 UTC

Location: N 32°57' W 080°01'.
View on Google Maps.

See reports from other nearby stations

  
Tides and Currents Weather Stations Pressure Air Temp Water Temp Dewpoint Dewpoint Depression Visibility Wind Speed Wind Dir Waves Ship Positions
date/time (UTC)wind fromknots sea level pressurealtimeterstation pressurevisibilityair tempwater tempwave heightnotes
2020-Jul-04 12:09 146 26.1
2020-Jul-04 12:04 162 0 gusting 0 26.1
2020-Jul-04 11:59 086 0 gusting 1 25.6
2020-Jul-04 11:54 280 1 gusting 2 25.6
2020-Jul-04 11:49 148 0 gusting 1 25.6
2020-Jul-04 11:44 207 1 gusting 1 26.1
2020-Jul-04 11:39 173 26.1
2020-Jul-04 11:33 173 26.1
2020-Jul-04 11:28 173 25.6
2020-Jul-04 11:23 173 25.6
2020-Jul-04 11:18 173 24.4
2020-Jul-04 11:14 173 23.9
2020-Jul-04 11:08 174 23.3
2020-Jul-04 11:04 174 23.3
2020-Jul-04 10:58 174 23.3
2020-Jul-04 10:53 174 22.8
2020-Jul-04 10:48 174 22.8
2020-Jul-04 10:43 174 22.8
2020-Jul-04 10:38 174 22.8
2020-Jul-04 10:33 174 22.8
2020-Jul-04 10:28 174 22.8
2020-Jul-04 10:23 174 22.8
2020-Jul-04 10:18 174 22.8
2020-Jul-04 10:13 174 22.8
2020-Jul-04 10:08 174 23.3
2020-Jul-04 10:03 174 23.3
2020-Jul-04 09:58 174 23.3
2020-Jul-04 09:52 174 23.3
2020-Jul-04 09:47 174 23.3
2020-Jul-04 09:42 174 23.3
2020-Jul-04 09:37 174 23.3
2020-Jul-04 09:32 174 23.3
2020-Jul-04 09:27 174 23.3
2020-Jul-04 09:22 174 23.9
2020-Jul-04 09:17 172 23.9
2020-Jul-04 09:12 161 23.9
2020-Jul-04 09:07 167 23.9
2020-Jul-04 09:02 162 23.9
2020-Jul-04 08:57 167 23.9
2020-Jul-04 08:52 160 23.9
2020-Jul-04 08:47 156 23.9
2020-Jul-04 08:42 161 23.9
2020-Jul-04 08:37 181 23.9
2020-Jul-04 08:32 175 23.9
2020-Jul-04 08:27 145 23.9
2020-Jul-04 08:22 172 23.9
2020-Jul-04 08:17 172 23.3
2020-Jul-04 08:12 171 23.9
2020-Jul-04 08:07 169 23.9
2020-Jul-04 08:01 169 23.9
2020-Jul-04 07:56 169 23.9
2020-Jul-04 07:51 169 23.9
2020-Jul-04 07:46 199 23.9
2020-Jul-04 07:41 172 23.9
2020-Jul-04 07:36 188 23.9
2020-Jul-04 07:31 184 23.3
2020-Jul-04 07:26 184 23.3
2020-Jul-04 07:21 184 23.3
2020-Jul-04 07:16 184 23.9
2020-Jul-04 07:11 184 23.9
2020-Jul-04 07:06 184 23.9
2020-Jul-04 07:01 184 23.9
2020-Jul-04 06:56 184 23.9
2020-Jul-04 06:51 184 23.9
2020-Jul-04 06:46 184 23.9
2020-Jul-04 06:41 184 23.9
2020-Jul-04 06:36 184 23.9
2020-Jul-04 06:31 184 23.9
2020-Jul-04 06:26 184 23.9
2020-Jul-04 06:22 184 23.9
2020-Jul-04 06:15 184 23.9
2020-Jul-04 06:10 184 24.4
2020-Jul-04 06:05 184 24.4
2020-Jul-04 06:00 184 23.9
2020-Jul-04 05:55 184 23.9
2020-Jul-04 05:50 184 23.9
2020-Jul-04 05:45 184 23.9
2020-Jul-04 05:40 184 24.4
2020-Jul-04 05:35 184 23.9
2020-Jul-04 05:30 184 23.9
2020-Jul-04 05:25 184 23.9
2020-Jul-04 05:20 184 24.4
2020-Jul-04 05:15 184 24.4
2020-Jul-04 05:10 184 24.4
2020-Jul-04 05:05 184 24.4
2020-Jul-04 05:00 184 24.4
2020-Jul-04 04:55 184 24.4
2020-Jul-04 04:50 184 24.4
2020-Jul-04 04:44 184 24.4
2020-Jul-04 04:39 184 24.4
2020-Jul-04 04:34 184 24.4
2020-Jul-04 04:29 184 24.4
2020-Jul-04 04:24 184 25.0
2020-Jul-04 04:19 184 25.0
2020-Jul-04 04:14 184 25.0
2020-Jul-04 04:09 184 25.0
2020-Jul-04 04:04 184 25.0
2020-Jul-04 03:59 184 25.0
2020-Jul-04 03:54 184 25.0
2020-Jul-04 03:49 184 25.0
2020-Jul-04 03:44 184 25.0
2020-Jul-04 03:39 184 25.0
2020-Jul-04 03:34 184 25.0
2020-Jul-04 03:29 184 25.0
2020-Jul-04 03:24 184 25.6
2020-Jul-04 03:19 184 25.6
2020-Jul-04 03:14 184 25.6
2020-Jul-04 03:09 184 25.6
2020-Jul-04 03:04 184 25.6
2020-Jul-04 02:59 184 26.1
2020-Jul-04 02:53 184 26.1
2020-Jul-04 02:48 184 26.1
2020-Jul-04 02:43 184 26.1
2020-Jul-04 02:38 184 26.1
2020-Jul-04 02:33 184 26.7
2020-Jul-04 02:28 184 26.7
2020-Jul-04 02:23 184 26.7
2020-Jul-04 02:18 184 26.7
2020-Jul-04 02:13 184 26.7
2020-Jul-04 02:08 184 27.2
2020-Jul-04 02:03 184 27.2
2020-Jul-04 01:58 184 27.2
2020-Jul-04 01:53 184 0 gusting 0 27.2
2020-Jul-04 01:48 179 27.2
2020-Jul-04 01:43 178 27.8
2020-Jul-04 01:38 177 0 gusting 0 27.8
2020-Jul-04 01:33 177 27.2
2020-Jul-04 01:27 177 27.8
2020-Jul-04 01:22 161 27.8
2020-Jul-04 01:17 161 27.8
2020-Jul-04 01:12 132 0 gusting 0 27.8
2020-Jul-04 01:07 145 27.8
2020-Jul-04 01:02 170 27.8
2020-Jul-04 00:57 167 27.8
2020-Jul-04 00:52 157 0 gusting 0 27.8
2020-Jul-04 00:47 147 27.8
2020-Jul-04 00:42 152 27.8
2020-Jul-04 00:37 152 27.8
2020-Jul-04 00:32 152 27.8
2020-Jul-04 00:27 152 28.3
2020-Jul-04 00:22 152 28.3
2020-Jul-04 00:17 177 0 gusting 0 28.3
2020-Jul-04 00:12 141 28.3
2020-Jul-04 00:07 140 28.3
2020-Jul-04 00:02 147 28.3
2020-Jul-03 23:57 140 28.3
2020-Jul-03 23:52 160 28.3
2020-Jul-03 23:47 161 28.9
2020-Jul-03 23:41 140 28.9
2020-Jul-03 23:37 153 0 gusting 0 28.9
2020-Jul-03 23:31 167 28.9
2020-Jul-03 23:26 166 28.9
2020-Jul-03 23:21 169 0 gusting 0 28.9
2020-Jul-03 23:16 160 28.3
2020-Jul-03 23:11 158 28.9
2020-Jul-03 23:06 072 0 gusting 0 28.9
2020-Jul-03 23:01 116 1 gusting 1 28.9
2020-Jul-03 22:56 179 0 gusting 0 28.9
2020-Jul-03 22:51 146 0 gusting 1 28.9
2020-Jul-03 22:46 127 1 gusting 1 28.9
2020-Jul-03 22:41 158 0 gusting 1 28.9
2020-Jul-03 22:36 154 2 gusting 4 29.4
2020-Jul-03 22:31 110 1 gusting 1 29.4
2020-Jul-03 22:26 153 29.4
2020-Jul-03 22:21 149 29.4
2020-Jul-03 22:16 152 0 gusting 1 29.4
2020-Jul-03 22:11 101 0 gusting 0 30.0
2020-Jul-03 22:06 147 0 gusting 1 30.0
2020-Jul-03 22:01 185 0 gusting 0 30.6
2020-Jul-03 21:55 164 30.0
2020-Jul-03 21:50 141 0 gusting 1 30.6
2020-Jul-03 21:45 109 0 gusting 0 31.1
2020-Jul-03 21:40 163 0 gusting 0 31.1
2020-Jul-03 21:35 136 1 gusting 1 31.7
2020-Jul-03 21:30 161 31.1
2020-Jul-03 21:25 108 1 gusting 1 30.6
2020-Jul-03 21:20 098 1 gusting 2 31.1
2020-Jul-03 21:15 147 0 gusting 1 31.1
2020-Jul-03 21:10 191 0 gusting 1 31.1
2020-Jul-03 21:05 141 2 gusting 4 30.0
2020-Jul-03 21:00 148 1 gusting 1 30.6
2020-Jul-03 20:55 139 0 gusting 1 30.6
2020-Jul-03 20:50 101 0 gusting 0 31.7
2020-Jul-03 20:45 115 0 gusting 1 32.8
2020-Jul-03 20:40 148 3 gusting 5 33.9
2020-Jul-03 20:35 155 33.9
2020-Jul-03 20:25 181 33.9
2020-Jul-03 20:20 168 0 gusting 0 34.4
2020-Jul-03 20:15 161 0 gusting 0 33.9
2020-Jul-03 20:10 203 33.9
2020-Jul-03 20:04 061 2 gusting 4 33.3
2020-Jul-03 19:59 142 0 gusting 0 32.8
2020-Jul-03 19:54 147 2 gusting 2 32.2
2020-Jul-03 19:49 131 1 gusting 2 31.7
2020-Jul-03 19:44 151 1 gusting 2 31.1
2020-Jul-03 19:39 169 31.7
2020-Jul-03 19:34 294 3 gusting 5 33.3
2020-Jul-03 19:29 184 0 gusting 0 32.8
2020-Jul-03 19:24 193 32.2
2020-Jul-03 19:19 176 0 gusting 0 31.7
2020-Jul-03 19:14 195 31.7
2020-Jul-03 19:09 168 32.2
2020-Jul-03 19:04 048 0 gusting 1 32.2
2020-Jul-03 18:59 168 1 gusting 1 31.1
2020-Jul-03 18:54 172 0 gusting 1 31.7
2020-Jul-03 18:49 209 1 gusting 1 31.7
2020-Jul-03 18:44 182 0 gusting 0 31.1
2020-Jul-03 18:39 256 2 gusting 2 32.2
2020-Jul-03 18:34 045 0 gusting 1 32.8
2020-Jul-03 18:28 188 0 gusting 0 32.8
2020-Jul-03 18:23 184 0 gusting 1 32.2
2020-Jul-03 18:18 185 31.7
2020-Jul-03 18:13 102 0 gusting 0 31.7
2020-Jul-03 18:08 136 0 gusting 0 32.2
2020-Jul-03 18:03 257 1 gusting 1 32.8
2020-Jul-03 17:58 037 1 gusting 1 32.2
2020-Jul-03 17:53 092 2 gusting 2 32.2
2020-Jul-03 17:48 116 31.1
2020-Jul-03 17:43 175 1 gusting 1 31.1
2020-Jul-03 17:38 134 0 gusting 1 30.6
2020-Jul-03 17:33 154 31.1
2020-Jul-03 17:28 066 2 gusting 2 32.2
2020-Jul-03 17:23 073 2 gusting 4 31.7
2020-Jul-03 17:18 213 1 gusting 1 31.7
2020-Jul-03 17:13 090 0 gusting 0 31.1
2020-Jul-03 17:08 048 5 gusting 6 31.1
2020-Jul-03 17:03 082 2 gusting 4 32.8
2020-Jul-03 16:58 211 0 gusting 1 32.8
2020-Jul-03 16:53 045 1 gusting 2 32.2
2020-Jul-03 16:48 111 2 gusting 2 32.2
2020-Jul-03 16:42 182 0 gusting 0 32.2
2020-Jul-03 16:37 151 0 gusting 0 31.7
2020-Jul-03 16:32 161 0 gusting 1 31.7
2020-Jul-03 16:27 191 2 gusting 2 31.7
2020-Jul-03 16:22 073 2 gusting 5 31.7
2020-Jul-03 16:17 124 0 gusting 1 31.7
2020-Jul-03 16:12 192 2 gusting 4 31.7
2020-Jul-03 16:07 037 4 gusting 6 32.2
2020-Jul-03 16:02 075 2 gusting 5 31.7
2020-Jul-03 15:57 113 2 gusting 4 32.2
2020-Jul-03 15:52 050 2 gusting 4 32.2
2020-Jul-03 15:47 047 0 gusting 2 31.7
2020-Jul-03 15:42 096 1 gusting 1 31.1
2020-Jul-03 15:37 053 0 gusting 1 31.1
2020-Jul-03 15:32 131 1 gusting 2 31.1
2020-Jul-03 15:27 156 5 gusting 6 31.1
2020-Jul-03 15:22 077 2 gusting 4 30.6
2020-Jul-03 15:17 046 2 gusting 4 30.6
2020-Jul-03 15:12 081 5 gusting 6 30.6
2020-Jul-03 15:07 139 2 gusting 2 30.6
2020-Jul-03 15:01 125 1 gusting 1 30.6
2020-Jul-03 14:56 154 1 gusting 2 30.6
2020-Jul-03 14:51 131 0 gusting 1 30.6
2020-Jul-03 14:46 127 1 gusting 1 30.0
2020-Jul-03 14:41 086 0 gusting 1 30.0
2020-Jul-03 14:36 128 0 gusting 1 30.6
2020-Jul-03 14:31 148 0 gusting 0 30.6
2020-Jul-03 14:26 075 0 gusting 0 30.0
2020-Jul-03 14:21 145 2 gusting 2 30.0
2020-Jul-03 14:16 111 1 gusting 1 30.0
2020-Jul-03 14:11 060 2 gusting 4 30.0
2020-Jul-03 14:06 146 0 gusting 0 30.0
2020-Jul-03 14:01 107 2 gusting 2 29.4
2020-Jul-03 13:56 113 0 gusting 1 28.9
2020-Jul-03 13:51 056 3 gusting 5 28.9
2020-Jul-03 13:46 120 0 gusting 1 28.9
2020-Jul-03 13:41 059 2 gusting 4 28.9
2020-Jul-03 13:36 164 1 gusting 1 28.9
2020-Jul-03 13:31 167 28.9
2020-Jul-03 13:26 134 1 gusting 1 28.3
2020-Jul-03 13:21 049 0 gusting 0 28.3
2020-Jul-03 13:16 132 27.8
2020-Jul-03 13:11 082 0 gusting 0 27.8
2020-Jul-03 13:06 151 0 gusting 1 27.8
2020-Jul-03 13:01 113 27.8
2020-Jul-03 12:55 080 0 gusting 1 27.2
2020-Jul-03 12:50 070 3 gusting 4 27.2
2020-Jul-03 12:45 153 0 gusting 1 27.2
2020-Jul-03 12:40 201 27.2
2020-Jul-03 12:35 150 26.7
2020-Jul-03 12:30 119 0 gusting 1 26.7
2020-Jul-03 12:25 086 0 gusting 1 26.1
2020-Jul-03 12:20 084 2 gusting 2 25.6
2020-Jul-03 12:15 084 0 gusting 1 26.1
2020-Jul-03 12:10 148 26.1
2020-Jul-03 12:05 161 25.6
2020-Jul-03 12:00 118 25.6
2020-Jul-03 11:55 090 1 gusting 1 25.6
2020-Jul-03 11:50 133 0 gusting 0 25.0
2020-Jul-03 11:45 133 0 gusting 0 25.0
2020-Jul-03 11:40 116 0 gusting 0 25.0
2020-Jul-03 11:35 126 24.4
2020-Jul-03 11:30 126 23.9
2020-Jul-03 11:25 126 23.9
2020-Jul-03 11:20 126 23.9
2020-Jul-03 11:14 130 23.9
2020-Jul-03 11:09 131 23.3
2020-Jul-03 11:04 131 23.3
2020-Jul-03 10:59 131 23.3
2020-Jul-03 10:54 131 22.8
2020-Jul-03 10:49 131 22.8
2020-Jul-03 10:44 131 22.8
2020-Jul-03 10:39 131 22.8
2020-Jul-03 10:34 131 22.8
2020-Jul-03 10:29 131 22.8
2020-Jul-03 10:24 132 22.8
2020-Jul-03 10:19 132 22.8
2020-Jul-03 10:14 132 22.8
2020-Jul-03 10:09 132 22.8
2020-Jul-03 10:04 132 22.8
2020-Jul-03 09:59 132 22.8
2020-Jul-03 09:54 132 22.8
2020-Jul-03 09:49 132 22.8
2020-Jul-03 09:44 131 22.8
2020-Jul-03 09:38 132 22.8
2020-Jul-03 09:33 132 22.8
2020-Jul-03 09:28 132 22.8
2020-Jul-03 09:23 132 23.3
2020-Jul-03 09:18 132 23.3
2020-Jul-03 09:13 131 22.8
2020-Jul-03 09:08 131 22.8
2020-Jul-03 09:03 131 22.8
2020-Jul-03 08:58 131 22.8
2020-Jul-03 08:53 131 22.8
2020-Jul-03 08:48 131 22.8
2020-Jul-03 08:43 131 23.3
2020-Jul-03 08:38 131 23.3
2020-Jul-03 08:33 131 23.3
2020-Jul-03 08:28 132 23.3
2020-Jul-03 08:23 131 23.3
2020-Jul-03 08:18 131 23.3
2020-Jul-03 08:13 131 23.3
2020-Jul-03 08:08 131 23.3
2020-Jul-03 08:03 131 23.3
2020-Jul-03 07:57 131 23.3
2020-Jul-03 07:52 131 23.3
2020-Jul-03 07:47 131 23.3
2020-Jul-03 07:42 131 23.3
2020-Jul-03 07:37 131 23.3
2020-Jul-03 07:32 131 23.3
2020-Jul-03 07:27 131 23.3
2020-Jul-03 07:22 131 23.3
2020-Jul-03 07:17 131 23.9
2020-Jul-03 07:12 131 23.9
2020-Jul-03 07:07 131 23.9
2020-Jul-03 07:02 131 23.9
2020-Jul-03 06:57 131 23.9
2020-Jul-03 06:52 131 23.9
2020-Jul-03 06:47 131 23.9
2020-Jul-03 06:42 131 23.9
2020-Jul-03 06:37 131 23.9
2020-Jul-03 06:32 131 23.9
2020-Jul-03 06:27 131 23.9
2020-Jul-03 06:22 131 23.9
2020-Jul-03 06:17 131 23.9
2020-Jul-03 06:12 131 23.9
2020-Jul-03 06:07 132 23.9
2020-Jul-03 06:01 132 23.9
2020-Jul-03 05:56 131 23.9
2020-Jul-03 05:51 131 23.9
2020-Jul-03 05:46 131 24.4
2020-Jul-03 05:41 136 24.4
2020-Jul-03 05:36 114 24.4
2020-Jul-03 05:31 114 24.4
2020-Jul-03 05:26 115 24.4
2020-Jul-03 05:21 115 24.4
2020-Jul-03 05:16 133 0 gusting 1 24.4
2020-Jul-03 05:11 123 24.4
2020-Jul-03 05:06 123 24.4
2020-Jul-03 05:01 079 0 gusting 0 24.4
2020-Jul-03 04:56 129 0 gusting 0 24.4
2020-Jul-03 04:51 141 24.4
2020-Jul-03 04:46 141 24.4
2020-Jul-03 04:41 141 24.4
2020-Jul-03 04:36 142 24.4
2020-Jul-03 04:30 142 24.4
2020-Jul-03 04:25 142 24.4
2020-Jul-03 04:20 142 24.4
2020-Jul-03 04:15 146 24.4
2020-Jul-03 04:10 147 24.4
2020-Jul-03 04:05 148 24.4
2020-Jul-03 04:00 148 24.4
2020-Jul-03 03:55 149 24.4
2020-Jul-03 03:50 168 24.4
2020-Jul-03 03:45 167 24.4
2020-Jul-03 03:40 166 24.4
2020-Jul-03 03:35 168 24.4
2020-Jul-03 03:30 169 25.0
2020-Jul-03 03:25 129 24.4
2020-Jul-03 03:20 129 25.0
2020-Jul-03 03:15 129 25.0
2020-Jul-03 03:10 131 25.0
2020-Jul-03 03:05 092 25.0
2020-Jul-03 03:00 151 24.4
2020-Jul-03 02:55 173 24.4
2020-Jul-03 02:50 173 24.4
2020-Jul-03 02:44 173 25.0
2020-Jul-03 02:39 173 25.0
2020-Jul-03 02:34 173 25.0
2020-Jul-03 02:29 164 0 gusting 0 25.0
2020-Jul-03 02:24 133 25.0
2020-Jul-03 02:19 134 25.0
2020-Jul-03 02:14 133 0 gusting 0 25.0
2020-Jul-03 02:09 155 25.0
2020-Jul-03 02:04 155 25.0
2020-Jul-03 01:59 139 25.0
2020-Jul-03 01:54 125 25.0
2020-Jul-03 01:49 127 25.0
2020-Jul-03 01:44 129 25.0
2020-Jul-03 01:39 142 25.6
2020-Jul-03 01:34 130 25.6
2020-Jul-03 01:29 147 25.6
2020-Jul-03 01:24 124 25.6
2020-Jul-03 01:19 158 25.6
2020-Jul-03 01:14 141 25.6
2020-Jul-03 01:09 136 25.6
2020-Jul-03 01:04 167 25.6
2020-Jul-03 00:59 163 25.6
2020-Jul-03 00:54 051 1 gusting 1 26.1
2020-Jul-03 00:48 140 0 gusting 0 26.1
2020-Jul-03 00:43 136 0 gusting 0 26.1
2020-Jul-03 00:38 120 26.1
2020-Jul-03 00:33 138 0 gusting 0 26.1
2020-Jul-03 00:28 072 0 gusting 0 26.1
2020-Jul-03 00:23 121 26.1
2020-Jul-03 00:18 147 26.1
2020-Jul-03 00:13 051 4 gusting 5 26.7
2020-Jul-03 00:08 130 0 gusting 0 26.7
2020-Jul-03 00:03 154 26.7
2020-Jul-02 23:58 112 0 gusting 1 27.2
2020-Jul-02 23:53 194 0 gusting 1 27.2
2020-Jul-02 23:48 173 0 gusting 0 26.7
2020-Jul-02 23:43 160 26.1
2020-Jul-02 23:38 209 0 gusting 1 26.7
2020-Jul-02 23:33 131 26.1
2020-Jul-02 23:28 230 0 gusting 0 26.1
2020-Jul-02 23:23 232 26.1
2020-Jul-02 23:18 147 1 gusting 1 26.1
2020-Jul-02 23:12 127 3 gusting 4 26.1
2020-Jul-02 23:07 133 1 gusting 2 26.1
2020-Jul-02 23:02 087 0 gusting 1 26.1
2020-Jul-02 22:57 127 26.1
2020-Jul-02 22:52 045 2 gusting 4 26.7
2020-Jul-02 22:47 081 1 gusting 1 26.1
2020-Jul-02 22:42 149 0 gusting 0 26.1
2020-Jul-02 22:37 214 0 gusting 1 26.1
2020-Jul-02 22:32 097 2 gusting 2 26.1
2020-Jul-02 22:27 104 2 gusting 4 26.7
2020-Jul-02 22:22 049 2 gusting 5 27.8
2020-Jul-02 22:17 316 1 gusting 1 27.8
2020-Jul-02 22:12 187 27.8
2020-Jul-02 22:07 205 0 gusting 0 27.8
2020-Jul-02 22:02 054 1 gusting 1 27.8
2020-Jul-02 21:57 086 4 gusting 5 27.8
2020-Jul-02 21:52 067 4 gusting 6 27.8
2020-Jul-02 21:47 094 4 gusting 6 27.2
2020-Jul-02 21:42 040 2 gusting 2 26.7
2020-Jul-02 21:37 101 2 gusting 4 26.1
2020-Jul-02 21:32 118 6 gusting 7 26.7
2020-Jul-02 21:27 031 3 gusting 6 26.7
2020-Jul-02 21:22 073 4 gusting 5 27.2
2020-Jul-02 21:17 156 6 gusting 9 28.9
2020-Jul-02 21:12 060 1 gusting 2 31.1
2020-Jul-02 21:06 151 2 gusting 2 31.7
2020-Jul-02 21:01 166 0 gusting 0 31.1
2020-Jul-02 20:56 088 2 gusting 2 31.1
2020-Jul-02 20:51 121 2 gusting 2 30.6
2020-Jul-02 20:46 113 0 gusting 1 30.6
2020-Jul-02 20:41 194 0 gusting 1 30.6
2020-Jul-02 20:36 132 2 gusting 2 31.1
2020-Jul-02 20:31 116 0 gusting 0 31.7
2020-Jul-02 20:26 103 3 gusting 4 32.2
2020-Jul-02 20:21 160 0 gusting 0 31.7
2020-Jul-02 20:16 098 2 gusting 2 31.7
2020-Jul-02 20:11 207 0 gusting 0 31.1
2020-Jul-02 20:06 189 0 gusting 0 31.7
2020-Jul-02 20:01 132 0 gusting 1 32.2
2020-Jul-02 19:56 190 1 gusting 1 32.2
2020-Jul-02 19:51 139 4 gusting 5 31.7
2020-Jul-02 19:46 092 3 gusting 5 31.7
2020-Jul-02 19:41 146 2 gusting 2 31.1
2020-Jul-02 19:36 102 3 gusting 4 31.1
2020-Jul-02 19:31 078 4 gusting 6 31.7
2020-Jul-02 19:26 079 2 gusting 2 31.7
2020-Jul-02 19:21 113 4 gusting 5 32.2
2020-Jul-02 19:15 106 2 gusting 4 32.2
2020-Jul-02 19:10 084 2 gusting 2 31.7
2020-Jul-02 19:05 119 4 gusting 5 33.9
2020-Jul-02 19:00 156 0 gusting 0 32.8
2020-Jul-02 18:55 066 1 gusting 1 33.3
2020-Jul-02 18:50 180 0 gusting 1 33.3
2020-Jul-02 18:45 201 0 gusting 0 32.8
2020-Jul-02 18:40 290 5 gusting 6 31.7
2020-Jul-02 18:35 091 6 gusting 6 32.8
2020-Jul-02 18:30 233 6 gusting 6 32.2
2020-Jul-02 18:25 125 1 gusting 1 32.2
2020-Jul-02 18:20 298 1 gusting 1 31.1
2020-Jul-02 18:15 280 3 gusting 4 31.1
2020-Jul-02 18:10 142 1 gusting 1 32.8
2020-Jul-02 18:05 182 1 gusting 1 32.8
2020-Jul-02 18:00 317 1 gusting 1 33.3
2020-Jul-02 17:55 179 0 gusting 0 33.3
2020-Jul-02 17:50 081 0 gusting 0 32.8
2020-Jul-02 17:45 239 1 gusting 1 32.2
2020-Jul-02 17:39 318 2 gusting 2 30.6
2020-Jul-02 17:34 217 5 gusting 6 31.1
2020-Jul-02 17:29 278 4 gusting 4 30.6
2020-Jul-02 17:24 272 4 gusting 5 31.7
2020-Jul-02 17:19 055 3 gusting 4 32.2
2020-Jul-02 17:14 173 0 gusting 1 32.2
2020-Jul-02 17:09 158 0 gusting 0 31.7
2020-Jul-02 17:04 189 31.1
2020-Jul-02 16:59 165 0 gusting 0 30.6
2020-Jul-02 16:54 165 30.6
2020-Jul-02 16:49 165 30.6
2020-Jul-02 16:44 195 30.0
2020-Jul-02 16:39 219 0 gusting 0 29.4
2020-Jul-02 16:34 291 0 gusting 1 29.4
2020-Jul-02 16:29 242 5 gusting 6 28.9
2020-Jul-02 16:24 168 4 gusting 6 28.9
2020-Jul-02 16:19 256 3 gusting 4 29.4
2020-Jul-02 16:14 254 3 gusting 4 30.0
2020-Jul-02 16:09 184 1 gusting 1 30.0
2020-Jul-02 16:04 296 3 gusting 4 29.4
2020-Jul-02 15:59 179 0 gusting 1 29.4
2020-Jul-02 15:54 165 0 gusting 0 28.9
2020-Jul-02 15:49 022 1 gusting 2 28.9
2020-Jul-02 15:43 016 4 gusting 5 28.9
2020-Jul-02 15:38 165 1 gusting 1 28.3
2020-Jul-02 15:33 296 3 gusting 4 28.3
2020-Jul-02 15:28 210 0 gusting 1 28.3
2020-Jul-02 15:23 225 2 gusting 4 28.3
2020-Jul-02 15:18 227 1 gusting 1 29.4
2020-Jul-02 15:13 142 0 gusting 0 28.9
2020-Jul-02 15:08 241 1 gusting 1 28.3
2020-Jul-02 15:03 261 2 gusting 2 29.4
2020-Jul-02 14:58 182 0 gusting 1 28.9
2020-Jul-02 14:53 142 28.3
2020-Jul-02 14:48 162 1 gusting 1 29.4
2020-Jul-02 14:43 075 0 gusting 0 28.9
2020-Jul-02 14:38 156 2 gusting 2 28.9
2020-Jul-02 14:33 237 28.9
2020-Jul-02 14:28 258 1 gusting 1 28.9
2020-Jul-02 14:23 148 0 gusting 1 28.3
2020-Jul-02 14:18 001 0 gusting 0 27.8
2020-Jul-02 14:13 140 0 gusting 0 28.3
2020-Jul-02 14:08 212 0 gusting 0 27.2
2020-Jul-02 14:02 215 2 gusting 2 27.2
2020-Jul-02 13:57 282 1 gusting 2 27.2
2020-Jul-02 13:52 187 0 gusting 0 27.2
2020-Jul-02 13:47 167 0 gusting 0 27.2
2020-Jul-02 13:42 169 27.2
2020-Jul-02 13:37 178 27.2
2020-Jul-02 13:32 259 1 gusting 1 27.2
2020-Jul-02 13:27 131 1 gusting 1 26.1
2020-Jul-02 13:22 152 26.7
2020-Jul-02 13:17 159 26.7
2020-Jul-02 13:12 176 26.1
2020-Jul-02 13:07 147 0 gusting 0 26.1
2020-Jul-02 13:02 187 0 gusting 0 25.6
2020-Jul-02 12:57 211 1 gusting 1 25.6
2020-Jul-02 12:52 147 0 gusting 0 25.0
2020-Jul-02 12:47 256 0 gusting 0 25.0
2020-Jul-02 12:42 144 1 gusting 2 25.0
2020-Jul-02 12:37 195 0 gusting 0 25.0
2020-Jul-02 12:32 283 2 gusting 4 25.0
2020-Jul-02 12:27 273 3 gusting 4 25.0
2020-Jul-02 12:22 215 1 gusting 1 25.0
2020-Jul-02 12:17 169 1 gusting 2 25.0
2020-Jul-02 12:12 161 0 gusting 1 25.0
2020-Jul-02 12:07 335 1 gusting 1 25.0
2020-Jul-02 12:01 353 0 gusting 0 24.4